Regional Weather Roundup
Issued by NWS Grand Forks, ND

Home | Current Version | Previous Version | Graphics & Text | Print | Product List | Glossary On
Versions: 1 2 3 4 5 6 7 8 9 10 11 12 13 14 15 16 17 18 19 20 21 22 23 24 25 26 27 28 29 30 31 32 33 34 35 36 37 38 39 40 41 42 43 44 45 46 47 48 49 50
000
ASUS43 KFGF 281110
RWRFGF
PRAIRIE TO PINES  WEATHER ROUNDUP
NATIONAL WEATHER SERVICE EASTERN NORTH DAKOTA/GRAND FORKS ND
600 AM CDT SAT MAR 28 2015

 **SATELLITE DATA USED TO AUGMENT SKY COVER AT AUTOMATED STATIONS**
 *****  WEATHER ACROSS EASTERN NORTH DAKOTA  *****

CITY           SKY/WX    TMP DP  RH WIND       PRES   REMARKS
GRAND FORKS    MOCLDY    21  16  81 SE8       30.09S WCI  11
GRAND FRKS AFB NOT AVBL
GRAND FRKS NWS   N/A     23 N/A N/A SE13        N/A  WCI  11
DEVILS LAKE    CLOUDY    28  25  86 S13G20    30.00S WCI  18
FARGO          PTCLDY    27  17  66 SE14      30.10F WCI  16
WAHPETON ARPT  SUNNY     25  19  80 SE9       30.12S WCI  15
$$

 ***** WEATHER ACROSS CENTRAL AND WESTERN NORTH DAKOTA  *****

CITY           SKY/WX    TMP DP  RH WIND       PRES   REMARKS
BISMARCK       FOG       29  29 100 SE9       29.98F VSB 1/2 WCI  20
MINOT          FOG       26  24  92 SE10      29.91F VSB 1/4 WCI  16
JAMESTOWN      CLOUDY    29  27  92 S13       30.02S WCI  19
MINOT AFB      FRZ DRZL  27  27 100 SE9       29.91S VSB 1/2 WCI  18
GARRISON         N/A     26  25  96 E7        29.92F WCI  18
WILLISTON      CLEAR     32  30  92 CALM      29.83F
DICKINSON      CLEAR     34  30  85 S12       29.86F
HETTINGER      CLEAR     33  28  81 SE5       29.91F
$$

 *****  OTHER AIRPORT OBSERVATIONS IN OUR AREA  *****

CITY           SKY/WX    TMP DP  RH WIND       PRES   REMARKS
WALHALLA         N/A     23  23 100 S8        30.05S WCI  14
GRAFTON AIRPOR NOT AVBL
VALLEY CITY AR CLOUDY    27  27 100 SE7       30.06R WCI  19
CANDO          NOT AVBL
CAVALIER APRT    N/A     25  23  93 S8        30.06F WCI  16
GWINNER          N/A     30  28  93 SE7         N/A  WCI  23
SHEYENNE NWR     N/A     28  23  82 S10       29.95S WCI  19
ROLLA          FOG       27  27 100 S15       29.95F VSB 1/4 WCI  15
 ***** THE ABOVE OBSERVATIONS ARE NON NWS ARE NOT QUALITY
       CONTROLLED AND MAY MIS-REPORT RAIN FOR SNOW...
$$

  *****  WEATHER ACROSS NORTHERN MINNESOTA  *****

CITY           SKY/WX    TMP DP  RH WIND       PRES   REMARKS
FLAG ISLAND    PTCLDY    12   7  79 CALM      30.11S
WARROAD        PTCLDY    23  16  74 S3        30.11F
ROSEAU         CLEAR     19  12  73 SE7       30.10F WCI  10
HALLOCK        PTCLDY    21  18  86 SE9       30.08F WCI  11
THF RVR FALLS  CLEAR     23  16  74 S5        30.11R WCI  17
BAUDETTE       CLEAR     15  11  83 SE3       30.11S
WASKISH        CLEAR     12  10  92 CALM      30.13R
CROOKSTON      PTCLDY    21  16  79 SE9       30.12S WCI  11
STEPHEN NDAWN    N/A     21  18  86 SE8         N/A  WCI  12
$$
  *****  WEATHER ACROSS CENTRAL AND WEST MINNESOTA  *****

CITY           SKY/WX    TMP DP  RH WIND       PRES   REMARKS
FOSSTON        CLEAR     19  12  73 SE7       30.11S WCI  10
BEMIDJI        CLEAR     11   6  79 CALM      30.12S
PARK RAPIDS    CLEAR     20  11  68 S5        30.12R WCI  13
ELBOW LAKE     FAIR      22  17  83 SE7       30.13R WCI  13
WADENA         CLEAR     19  14  79 SE3       30.13S
DETROIT LAKES  CLEAR     21  18  86 SE7       30.12S WCI  13
MOORHEAD       PTCLDY    25  19  80 SE9       30.12S WCI  15
FERGUS FALLS   CLEAR     23  16  74 SE8       30.15S WCI  14
MORRIS MN      CLEAR     25  21  86 SE8       30.13R WCI  16
STAPLES        CLEAR     16  10  79 CALM      30.15R
$$
  *****  WEATHER ELSEWHERE ACROSS MINNESOTA  *****

CITY           SKY/WX    TMP DP  RH WIND       PRES   REMARKS
DULUTH         CLEAR     14   8  77 CALM      30.16R
INTRNTL FALLS  CLEAR     11   6  81 CALM      30.13S
ELY            CLEAR      5   1  85 CALM      30.16R
CLOQUET        CLEAR     10   9  92 CALM      30.17R
WHEATON        CLOUDY    25  23  93 SE9       30.14R WCI  15
BRAINERD       CLEAR     13  10  88 CALM      30.16S
HIBBING        FAIR       6   2  83 CALM      30.16R
ALEXANDRIA     CLOUDY    24  16  71 SE7       30.14R WCI  16
SAINT CLOUD    CLEAR     21  10  62 SE5       30.18R WCI  15
MINNEAPOLIS    CLEAR     21   9  59 SE6       30.21R WCI  13
$$

  *****  WEATHER ACROSS SOUTH DAKOTA  *****

CITY           SKY/WX    TMP DP  RH WIND       PRES   REMARKS
SIOUX FALLS    CLOUDY    30  25  81 SE10G22   30.10R WCI  21
BROOKINGS      NOT AVBL
WATERTOWN      CLOUDY    28  24  85 S9        30.06S WCI  19
HURON          CLOUDY    28  24  85 SE12      30.06S WCI  18
SISSETON         N/A     22  21  96 SE8       30.09S WCI  12
ABERDEEN       CLOUDY    31  26  82 SE9       30.06S WCI  23
MITCHELL       PTCLDY    27  23  85 SE10      30.07S WCI  17
PIERRE         CLEAR     23  22  96 E7        29.98S FOG     WCI  15
MOBRIDGE       CLEAR     24  21  88 E9        29.97S WCI  14
RAPID CITY     CLEAR     35  29  78 CALM      29.92F
$$

  *****  SOME WEATHER IN NEARBY STATES *****

CITY           SKY/WX    TMP DP  RH WIND       PRES   REMARKS
GLASGOW MT     PTCLDY    38  34  85 E12       29.73F
GREAT FALLS MT CLEAR     49  34  56 S10       29.74F
CHEYENNE WY    CLEAR     46  23  40 W15       30.08S
SCOTTSBLUFF NE CLEAR     32  27  81 W7        29.99S
OMAHA NE       MOCLDY    34  27  75 SE12      30.12R
DES MOINES IA  CLOUDY    32  12  43 E7        30.18R
DAVENPORT IA   PTCLDY    18  12  77 SE7       30.25R WCI   9
CHICAGO IL     CLEAR     20  13  74 N6        30.25R WCI  12
EAU CLAIRE WI  CLEAR     15  11  83 CALM      30.21R
LA CROSSE WI   MOCLDY    21  15  78 SE3       30.24R
$$

  *****  SOME NATIONAL WEATHER *****

CITY           SKY/WX    TMP DP  RH WIND       PRES   REMARKS
LA GUARDIA NY  CLOUDY    36  20  52 NW13      29.78R
RALEIGH NC     PTCLDY    36  27  69 CALM      29.95R
ATLANTA GA     MOCLDY    37  28  70 NW10      30.06R
NEW ORLEANS LA PTCLDY    51  39  63 SE6       30.18R
OKLAHOMA CITY  MOCLDY    47  37  68 S12       30.02R
ALBUQUERQUE NM CLEAR     45  19  35 SE5       30.20R
SALT LAKE CITY CLEAR     50  33  52 SE9       30.08F
LOS ANGELES CA CLEAR     60  55  83 E3        30.05S
BOISE ID       PTCLDY    54  40  59 E3        29.99R
SEATTLE WA     MOCLDY    50  45  83 SW18G26   30.10S
$$

*** WEATHER ACROSS MANITOBA...SASKATCHEWAN AND ONTARIO ***
                ***ONTARIO***

CITY           SKY/WX    TMP DP  RH WIND       PRES   REMARKS
GERALDTON      CLEAR     -2  -9  71 SW2       30.14R
THUNDER BAY    CLEAR      3   1  92 W3        30.23R
SIOUX LOOKOUT  CLEAR     -2  -6  84 S5        30.11S WCI -12
TORONTO        PTCLDY    12   0  57 N16       30.13R WCI  -4
BIG TROUT LK   PTCLDY    12   3  67 SW7       29.95F WCI   2
PICKLE LAKE    PTCLDY    12  -2  52 W8        30.05  WCI   1
DRYDEN         CLEAR     14   3  62 S8        30.10S WCI   3
KENORA         CLEAR     19   5  53 S6        30.09S WCI  11
$$
                *** MANITOBA***

CITY           SKY/WX    TMP DP  RH WIND       PRES   REMARKS
BRANDON        CLOUDY    30  27  86 S9        29.95F WCI  22
DAUPHIN        CLOUDY    30  27  86 SW9       29.90F WCI  22
ISLAND LAKE    NOT AVBL
PILOT MOUND      N/A     27  27 100 S16         N/A  WCI  14
THE PAS        CLOUDY    28  27  93 S12       29.74F WCI  18
THOMPSON       MOCLDY    21  18  86 S5        29.74F WCI  15
WINNIPEG       PTCLDY    23  19  86 S13       30.05F WCI  11
LYNN LAKE      CLOUDY    28  25  86 S7        29.59F WCI  21
CHURCHILL      CLEAR     27  18  69 SW14      29.56F WCI  15
GILLAM         PTCLDY    21  14  73 SW12      29.77F WCI   9
$$
                ***SASKATCHEWAN***

CITY           SKY/WX    TMP DP  RH WIND       PRES   REMARKS
ESTEVAN        PTCLDY    30  28  93 SE8       29.84F WCI  23
KINDERSLEY     MOCLDY    41  36  81 S9        29.53F
LLOYDMINSTER   MOCLDY    36  34  93 SW10      29.45F
PRINCE ALBERT  MOCLDY    34  32  93 SE6       29.63F
REGINA         PTCLDY    32  32 100 SE18      29.75F WCI  20
YORKTON        CLOUDY    32  30  93 S13       29.81F FOG     WCI  22
N. BATTLEFORD  MOCLDY    36  34  93 E14       29.51F
LA RONGE       CLOUDY    34  32  93 SE6       29.59F
SASKATOON      MOCLDY    39  36  87 S15       29.56F
SWIFT CURRENT  MOCLDY    46  36  66 S17       29.61F
$$
NOTE: THESE ARE AUTOMATED STATIONS WITH LIMITED QUALITY CONTROL
      "FAIR" INDICATES FEW OR NO CLOUDS BELOW 12,000 FEET WITH NO
      SIGNIFICANT WEATHER AND/OR OBSTRUCTIONS TO VISIBILITY.
      SKY/WX - SKY CONDITION AND SIGNIFICANT WEATHER.
      TMP - AIR TEMPERATURE.    DP   - DEWPOINT TEMPERATURE.
      RH  - RELATIVE HUMIDITY.  PRES - PRESSURE.
      HX  - HEAT INDEX.         WCI  - WIND CHILL INDEX.
$



USA.gov is the U.S. government's official web portal to all federal, state and local government web resources and services.